RH
8 9 9 8 8 11 12 14 13 18 25 26 28 22 15 18 18 13 12 12 10 9 7 19 21 15 28 34 34 37 42 51 54 53 56 54 50 53 36 29 30 18 17 9 5 7 7 10 9 12 14 18 18 19 17 14 14 15 16 16 17 19 23 27 32 40 44 46 50 55 57 60 62 62 60 56 57 60 64 64 57 59 75 82 77 75 73 71 69 67 66 65 63 60 55 53 52
7 8 8 8 12 14 15 13 14 21 23 23 26 22 17 17 17 13 13 11 10 9 4 19 30 25 32 33 32 35 41 52 53 49 54 55 57 59 43 34 29 18 17 9 5 7 7 9 9 11 13 16 16 16 15 13 14 15 17 17 18 21 28 31 34 41 43 44 50 56 58 60 62 62 58 52 53 56 61 62 55 66 80 78 75 74 72 71 68 66 64 61 62 61 60 59 51
6 8 7 8 16 18 16 13 19 24 19 17 19 19 17 14 14 12 11 10 7 9 5 16 36 38 41 40 37 37 41 51 54 48 51 58 59 59 50 40 29 19 17 9 6 6 7 8 9 10 12 14 14 14 13 13 14 15 17 17 20 26 33 35 35 41 42 45 50 56 59 60 60 58 52 46 47 45 51 57 58 71 81 76 75 74 73 72 68 65 62 57 53 54 58 52 46
6 8 7 9 19 19 18 18 25 26 14 13 14 16 16 12 13 11 9 8 6 8 7 20 41 44 47 49 46 45 43 46 51 46 44 55 57 56 53 44 31 22 17 9 5 6 7 8 8 9 11 13 13 13 12 12 14 15 16 17 24 32 38 39 38 41 44 47 52 57 60 62 62 59 52 45 40 32 32 40 54 71 78 76 74 73 72 70 66 60 49 40 31 33 42 41 50
7 9 7 12 21 18 19 23 29 24 12 14 12 13 16 12 11 11 9 7 7 8 8 23 43 47 49 51 51 51 43 36 43 44 41 51 59 57 50 40 31 24 17 9 6 6 7 7 8 9 10 11 12 12 11 12 14 16 16 19 29 36 41 42 41 42 45 50 54 57 60 63 64 63 54 42 33 28 23 24 44 67 76 74 72 71 69 65 56 43 29 21 15 16 27 40 60
7 9 7 14 22 16 18 21 24 21 14 15 12 14 15 12 12 10 9 8 7 7 7 16 34 48 54 54 56 54 46 39 38 39 40 48 59 59 50 41 35 27 18 11 6 6 6 8 8 9 10 11 11 11 11 11 14 16 17 23 33 40 43 44 43 43 46 49 53 53 54 57 60 57 48 38 30 26 20 21 40 62 71 69 70 68 62 55 40 27 19 15 11 13 28 51 70
8 8 10 21 24 17 23 23 19 19 16 15 13 14 13 12 11 9 9 8 7 7 7 12 23 44 58 60 63 56 47 48 41 36 39 45 57 61 53 49 47 38 27 14 7 6 6 7 8 8 9 10 10 10 11 11 14 16 19 29 38 42 44 45 46 45 44 46 47 45 44 47 50 46 39 35 28 20 14 22 44 57 61 63 67 64 53 41 26 20 18 14 16 27 45 65 71
10 11 13 26 29 23 29 28 21 19 18 16 13 11 11 11 9 9 9 7 8 6 7 18 27 40 58 64 66 62 55 57 50 40 41 47 56 61 57 57 57 49 39 21 8 6 6 7 8 8 9 9 10 10 10 11 14 16 23 35 42 43 46 50 50 47 44 41 39 35 33 35 37 34 30 26 17 11 8 19 41 47 49 58 64 57 44 28 18 22 23 26 37 49 62 69 66
12 16 17 25 30 26 29 26 21 19 18 16 13 11 10 10 10 10 10 8 9 7 6 25 40 44 60 71 69 70 69 65 58 48 46 49 56 61 59 61 63 57 48 27 9 6 7 8 8 8 9 9 10 11 10 12 15 18 28 40 44 45 50 55 53 48 44 39 33 27 24 24 25 21 17 12 6 6 6 12 32 43 47 55 57 48 32 16 16 28 35 44 55 61 66 66 66
14 20 20 26 29 26 26 24 20 19 16 14 13 12 10 10 10 10 10 9 8 8 6 19 44 55 70 81 76 75 74 67 61 55 52 53 59 63 61 65 66 64 54 29 10 7 7 8 9 9 9 10 10 11 10 12 15 21 34 43 45 49 55 56 53 48 43 35 27 20 16 14 12 10 7 6 5 6 6 8 24 39 43 45 44 35 20 10 15 30 45 55 60 61 63 65 67
19 24 19 26 30 25 23 21 20 19 16 14 12 9 10 9 9 9 9 9 7 8 6 19 52 69 82 89 79 76 74 70 65 56 56 61 64 65 64 68 66 63 57 32 11 7 7 8 9 9 9 10 10 10 11 13 17 27 39 44 48 54 58 58 53 49 42 31 20 12 9 7 5 6 6 6 6 6 7 8 19 31 32 34 32 22 12 8 12 27 45 55 58 59 61 65 69
25 29 25 29 31 25 21 20 18 19 17 14 13 10 9 8 9 8 7 8 6 6 5 20 46 63 89 99 82 78 79 77 70 57 58 66 68 68 69 70 63 55 49 32 13 7 7 8 9 10 10 10 11 10 12 14 20 33 42 46 53 59 61 59 54 49 39 24 12 6 5 5 5 6 6 6 7 8 8 8 16 24 24 25 22 14 9 9 10 20 38 50 54 57 61 66 68
28 31 28 31 31 26 22 22 21 24 22 17 13 9 9 8 8 7 8 7 6 8 5 11 29 55 94 100 85 83 82 80 74 62 61 69 71 71 71 68 59 47 38 26 12 7 7 8 9 10 10 10 11 12 14 15 25 39 46 52 60 62 62 61 55 46 31 14 5 5 5 6 6 7 7 7 9 10 9 8 14 18 18 18 15 10 9 10 10 12 23 38 48 53 60 66 67
26 28 25 30 30 24 22 22 21 22 20 15 12 9 9 8 8 7 8 7 6 8 4 10 25 55 92 100 95 91 84 82 75 67 66 70 72 71 70 63 54 45 34 21 11 8 7 8 9 10 10 11 12 15 16 18 32 45 50 59 65 64 64 63 57 42 21 7 4 5 6 7 7 7 7 8 10 11 9 9 12 14 14 14 11 9 9 11 11 11 13 20 34 47 56 62 64
20 24 25 31 30 22 20 20 18 18 15 12 10 9 9 7 8 7 6 8 7 6 9 24 37 50 77 86 81 78 81 83 74 70 70 71 73 72 68 58 50 44 32 20 12 8 7 8 9 10 10 11 13 16 16 24 41 51 57 66 69 67 67 66 58 40 17 5 4 5 6 7 8 8 8 9 10 10 8 9 10 12 12 12 10 9 10 11 12 13 12 12 18 29 42 54 61
18 21 27 32 32 26 22 19 16 17 14 11 10 8 8 7 7 6 8 8 5 14 21 36 50 46 54 57 44 53 79 84 74 73 73 74 74 70 64 54 47 41 32 22 14 9 8 8 9 10 11 10 11 14 18 31 50 58 65 73 73 71 70 67 59 41 19 5 4 5 6 8 8 9 9 10 10 9 8 9 10 10 10 10 10 10 11 12 13 13 14 15 15 17 23 34 48
18 22 31 34 33 29 23 18 15 16 12 10 9 8 8 8 7 5 11 19 22 35 41 48 62 53 46 53 45 52 79 83 77 77 76 77 74 68 59 51 45 39 33 26 17 11 8 8 9 10 10 11 11 14 21 39 59 66 72 78 76 73 72 69 61 49 26 7 5 6 7 8 9 9 10 10 9 8 8 8 9 10 10 11 11 12 12 13 13 14 15 16 18 19 18 18 27
22 31 36 35 33 27 22 17 15 14 11 11 9 8 9 8 9 5 12 39 56 58 63 67 71 65 56 63 59 58 77 82 80 78 79 80 76 70 58 50 47 42 38 29 19 12 9 9 10 11 10 11 11 16 28 49 68 71 75 79 77 75 74 69 62 55 36 12 5 7 7 8 9 10 10 11 11 10 9 9 10 11 12 14 14 13 14 14 15 17 19 20 23 23 24 21 17
26 36 35 30 29 24 18 15 14 13 12 12 10 9 10 9 9 7 10 35 65 74 80 81 75 79 75 72 67 62 75 82 81 80 81 81 79 74 63 56 52 48 42 31 21 13 11 9 10 12 11 11 11 19 37 60 73 72 75 79 77 77 73 68 61 56 44 18 6 7 8 8 9 10 10 12 13 13 12 11 12 13 15 17 18 18 19 20 22 24 28 30 33 32 30 29 23
27 33 34 28 25 22 18 14 13 12 12 12 12 11 10 11 8 9 8 18 58 85 92 92 89 94 88 77 71 68 78 84 83 82 82 82 82 79 71 65 58 50 44 34 24 15 12 10 10 12 12 11 12 26 50 69 75 72 75 76 76 76 71 65 60 57 47 22 7 7 7 8 9 9 10 11 12 14 15 16 16 16 18 20 22 24 26 28 31 33 35 35 36 38 36 34 33
27 30 33 27 22 23 20 16 14 12 12 12 12 12 10 11 9 9 9 10 38 62 70 80 83 88 88 81 78 77 83 87 86 84 82 83 82 81 77 69 60 52 45 39 31 21 14 11 11 12 13 12 15 34 57 70 72 71 75 74 73 73 66 63 60 55 43 20 8 7 8 9 9 9 10 10 10 11 13 15 17 20 21 23 26 27 30 32 35 36 36 37 34 35 34 35 41
25 26 27 24 23 23 19 16 16 14 12 13 12 14 11 10 10 8 10 8 14 23 34 53 57 57 65 73 84 89 88 87 88 86 83 82 81 81 77 67 59 54 49 43 36 27 17 12 12 12 13 13 18 35 52 65 68 67 71 70 71 69 63 63 57 44 30 17 8 7 9 9 10 10 10 10 10 10 10 12 13 16 19 21 23 25 29 32 33 32 30 32 32 35 33 32 46
24 24 21 21 22 21 20 16 15 14 13 15 13 13 11 10 11 8 10 10 9 9 14 34 45 44 50 64 82 89 89 88 87 85 82 80 80 81 78 70 64 59 52 46 39 30 20 14 12 11 13 13 18 31 45 60 61 58 63 64 66 63 61 61 52 37 22 13 13 18 21 18 18 15 12 11 10 11 11 11 12 13 17 18 17 18 20 23 29 31 29 30 34 43 42 38 53
22 24 19 17 18 17 18 16 15 14 13 15 13 12 11 10 12 9 10 8 9 8 9 31 49 54 60 68 73 75 82 87 85 85 82 81 82 82 79 73 69 64 56 49 41 33 24 17 13 12 13 12 15 22 34 48 47 49 57 59 62 61 59 60 59 54 39 31 38 45 43 34 30 27 25 22 23 27 25 25 29 32 36 34 30 29 24 22 34 43 42 43 48 55 57 55 63
20 21 18 15 15 13 13 12 12 12 11 12 12 13 12 11 12 10 11 8 9 10 16 40 58 63 65 65 73 82 90 93 90 88 87 87 87 84 80 75 72 69 62 54 44 36 27 18 13 12 13 12 12 13 22 33 34 45 55 54 59 59 57 63 69 70 62 59 64 65 59 47 40 41 44 44 44 47 44 43 45 48 51 50 50 50 45 42 47 56 58 58 60 62 64 66 68
19 17 16 15 14 13 12 11 11 10 10 10 12 14 12 11 11 11 10 7 11 19 34 56 67 67 66 69 82 92 96 96 92 91 92 92 89 86 82 77 77 74 68 60 49 39 30 20 15 12 12 12 12 10 15 23 27 41 52 52 57 56 57 68 73 72 69 70 70 67 64 57 51 52 54 54 54 52 48 50 51 53 55 58 62 63 62 63 63 65 68 68 69 70 71 71 71
17 15 15 14 14 13 12 12 10 11 10 9 12 13 11 9 11 12 9 13 22 31 52 72 73 71 77 87 94 96 97 97 95 95 97 96 92 89 85 82 82 78 73 65 54 44 35 26 19 15 14 12 12 11 13 17 24 38 49 54 57 55 58 69 73 72 71 70 68 65 61 57 55 55 56 55 55 52 48 55 61 62 64 64 67 70 70 72 73 73 74 77 79 80 79 79 78
17 16 16 15 14 13 12 12 11 11 10 10 10 12 12 10 12 11 9 27 40 37 53 74 80 87 94 99 100 100 100 99 98 99 98 96 94 92 88 86 85 82 77 70 58 47 41 35 29 25 20 16 13 13 14 16 25 39 50 56 58 56 59 66 72 73 72 71 70 67 63 58 55 53 55 55 52 44 42 55 66 68 70 68 69 73 74 74 75 75 78 81 83 83 83 83 83
18 17 20 18 15 15 13 12 11 11 11 9 9 12 13 11 13 10 7 33 53 46 48 65 85 98 100 100 100 100 101 99 100 100 98 97 97 95 90 88 86 84 80 72 62 51 46 41 38 38 31 23 18 16 16 16 25 42 54 58 58 58 61 66 73 73 72 73 72 72 69 64 60 54 55 62 59 51 50 59 68 70 71 71 72 73 73 73 71 73 78 80 80 80 81 83 83
19 18 19 19 17 16 13 12 11 11 11 8 9 14 14 12 14 8 7 37 65 69 64 69 91 102 99 101 100 100 100 99 100 100 99 100 100 98 94 90 87 85 79 71 65 57 50 46 44 46 42 33 25 19 17 16 24 42 56 60 58 59 62 68 77 77 75 76 73 71 68 64 63 58 55 63 69 67 67 71 74 76 77 77 77 76 76 75 73 75 77 77 77 77 79 81 79
18 16 16 17 21 20 12 12 12 11 10 8 10 14 15 14 15 8 8 39 71 85 87 85 96 102 99 101 100 100 101 100 100 99 99 99 99 100 98 94 90 85 79 74 70 61 52 49 49 51 52 47 37 26 19 17 22 38 55 60 60 61 64 71 79 78 76 78 74 69 68 66 66 63 57 61 72 75 77 81 83 82 82 82 81 80 80 78 76 75 73 71 71 72 73 72 70
20 20 21 18 21 23 15 13 12 11 10 8 12 16 16 13 13 8 7 34 66 82 91 94 98 101 100 100 100 100 100 99 99 98 98 96 96 98 97 98 97 91 83 77 72 64 55 53 52 55 59 58 53 42 26 17 20 36 56 62 62 64 67 73 76 76 76 77 76 73 71 69 69 70 62 60 71 79 81 82 83 81 80 80 79 77 75 73 72 70 68 65 63 63 63 63 64
27 23 28 21 19 22 16 14 13 10 10 9 12 16 17 14 11 9 5 20 56 80 90 94 97 99 100 100 100 100 99 100 98 95 93 90 91 92 88 90 96 96 92 83 75 67 60 58 58 60 64 63 62 56 34 18 20 37 58 64 64 65 68 74 74 74 75 72 72 72 69 68 71 74 67 62 71 79 80 77 76 78 77 76 74 72 70 69 67 65 66 64 59 59 60 61 64
39 28 29 26 21 21 16 15 13 10 12 10 12 13 15 17 13 11 7 9 41 78 89 91 95 98 100 100 100 101 99 98 94 90 89 86 86 85 79 81 86 90 92 86 83 81 73 67 67 69 72 68 64 62 41 19 22 43 60 62 60 63 67 72 74 75 72 66 65 65 64 63 66 69 66 68 75 76 74 72 73 73 73 73 69 66 65 63 61 60 64 67 67 68 71 72 72
45 32 29 27 20 21 17 14 13 11 13 11 13 14 13 16 14 11 10 7 29 61 74 85 94 96 100 100 100 101 98 96 92 86 84 81 83 80 76 82 84 78 71 63 68 83 88 83 81 79 72 62 59 59 38 19 28 49 60 61 62 65 66 71 77 77 73 68 63 61 62 62 59 61 67 75 80 76 73 72 71 69 70 68 62 62 65 65 69 71 74 81 83 83 84 85 82
38 30 26 25 19 21 17 14 14 10 12 13 14 16 13 14 14 13 11 8 17 28 40 75 97 95 99 100 99 101 99 96 92 86 80 76 78 76 74 82 85 74 56 47 57 76 91 96 92 82 68 53 45 41 30 26 41 56 63 64 68 72 71 75 82 80 77 74 66 63 70 71 67 69 76 82 83 80 78 74 69 66 65 63 64 73 82 84 87 90 91 93 93 91 90 89 87
29 26 23 21 18 19 16 14 14 10 12 14 14 16 15 14 14 14 11 9 15 13 24 71 98 94 99 101 99 101 99 97 93 89 85 78 75 72 71 75 81 79 62 57 63 62 72 90 91 82 73 57 40 33 34 36 40 47 56 62 70 79 80 83 87 83 80 76 68 67 76 82 80 79 82 85 87 85 80 72 64 61 64 68 75 85 92 93 92 95 96 96 95 93 89 87 86
25 25 23 21 19 17 16 13 12 11 12 15 16 15 15 15 15 16 13 12 16 15 32 74 96 96 99 100 100 100 98 97 92 88 85 79 73 69 67 65 71 79 68 63 67 52 51 72 82 80 77 68 59 56 54 45 38 37 42 55 72 84 87 85 81 80 79 74 68 71 81 86 84 81 82 88 94 87 74 64 57 59 70 78 82 87 90 91 94 96 97 97 95 93 90 87 84
30 26 22 24 22 17 16 14 12 11 13 18 18 13 15 17 15 16 16 15 13 10 21 50 77 97 103 99 100 100 97 95 89 85 82 76 71 68 67 64 67 74 67 62 68 62 55 59 68 75 75 75 77 77 70 58 52 50 51 63 78 87 86 79 75 77 75 70 71 78 82 81 83 83 84 91 95 83 67 56 54 64 76 80 82 89 91 90 94 95 95 94 93 91 90 88 84
36 31 25 26 23 19 18 16 14 11 13 18 16 16 20 19 16 17 15 13 13 10 12 25 52 84 97 95 97 96 95 95 91 87 82 75 72 71 73 73 73 75 68 60 64 69 62 51 54 64 71 76 77 78 78 70 65 67 70 74 79 84 81 74 76 77 74 73 76 81 78 75 83 83 80 87 88 79 68 60 61 69 78 81 83 86 85 85 90 92 91 89 89 90 88 85 82
39 32 27 25 20 19 19 17 17 18 20 18 13 17 22 20 17 15 13 11 12 19 30 44 62 83 92 94 96 91 88 91 91 88 81 76 74 71 71 74 75 71 62 55 59 63 54 42 42 54 67 76 75 77 81 77 73 75 80 81 81 84 81 76 77 74 74 77 79 80 75 73 80 78 77 87 88 84 78 71 72 76 83 88 86 85 84 85 89 90 90 89 89 89 85 84 82
44 35 27 21 18 18 16 15 16 21 26 21 14 16 24 29 22 15 16 12 16 37 57 71 85 97 98 98 100 94 91 92 89 84 79 76 76 73 71 73 72 64 53 51 58 58 48 40 42 54 68 75 76 79 81 79 76 76 78 80 79 79 77 74 70 68 73 76 78 79 73 73 79 78 83 93 93 90 86 79 79 80 84 87 87 91 93 92 92 93 94 93 91 88 84 86 87
47 38 25 19 18 17 16 15 17 24 29 24 17 16 27 36 25 19 19 9 26 62 77 83 94 101 100 99 100 97 96 96 89 82 80 77 77 76 74 73 68 57 48 54 61 57 50 46 45 53 65 73 77 80 81 81 79 77 75 75 73 67 66 67 67 70 74 75 77 77 74 76 78 78 89 96 91 87 86 84 83 81 81 83 88 95 96 96 97 97 95 90 84 82 82 85 89
43 32 23 21 19 18 18 15 18 28 30 24 20 16 23 31 21 20 22 21 55 87 87 91 99 100 100 99 100 98 95 93 87 82 80 78 76 73 71 70 65 56 53 61 64 58 56 54 49 54 64 73 77 78 79 79 78 77 74 72 68 62 64 70 72 74 77 78 77 75 77 79 76 80 91 94 89 87 88 89 87 83 82 85 92 97 98 98 97 93 88 82 76 76 78 81 85
33 22 21 23 19 19 19 16 21 28 25 24 26 18 22 36 32 27 33 45 79 101 94 95 99 98 100 99 100 100 97 93 86 82 80 77 75 71 66 63 62 59 58 63 66 63 66 66 62 64 70 74 77 77 77 75 74 71 64 60 58 62 73 78 76 78 79 78 75 75 79 78 76 86 93 90 88 90 92 91 87 85 86 88 92 94 93 91 87 81 75 72 69 68 70 75 80
25 17 20 20 17 19 19 18 21 23 26 27 27 20 21 39 39 29 40 60 83 98 97 94 95 98 101 100 100 100 100 96 85 81 79 74 70 64 61 61 63 62 60 64 71 72 72 76 77 76 77 78 77 77 76 74 74 66 54 53 62 73 81 81 79 80 79 76 75 77 77 75 80 90 92 91 90 92 94 92 88 87 88 89 90 89 84 79 75 70 64 62 59 56 61 70 77
20 17 18 17 18 20 23 28 22 21 35 34 26 21 16 30 39 31 41 63 81 92 97 95 93 96 98 99 101 100 100 96 87 82 76 69 65 61 60 65 67 68 67 71 77 77 77 80 84 83 82 82 79 79 78 75 73 60 51 62 76 81 80 78 79 79 78 76 75 77 76 78 86 91 92 94 94 95 96 92 87 85 85 87 86 79 72 68 65 60 56 55 53 54 62 73 83
17 17 19 22 25 22 22 29 24 26 44 44 33 24 15 27 40 31 29 47 69 80 87 94 95 94 95 97 100 100 100 97 91 84 73 66 68 71 75 76 76 78 78 77 78 81 84 86 89 88 86 84 82 82 80 74 67 54 54 72 82 79 77 76 75 74 73 72 73 77 78 84 93 94 94 96 97 98 96 90 84 80 82 83 77 66 57 55 52 47 46 48 50 57 67 77 87
19 19 23 27 30 29 26 30 32 37 44 42 34 24 19 27 31 23 18 35 64 73 73 86 94 92 92 95 100 100 99 99 95 86 74 66 65 67 74 80 85 89 85 80 80 84 88 91 92 90 87 86 84 84 81 71 63 53 58 76 81 78 78 76 73 70 68 67 70 76 81 88 94 94 95 98 98 99 97 92 84 76 75 72 64 53 45 43 40 36 39 44 50 59 69 78 83
22 21 25 28 30 32 33 33 35 40 40 36 32 23 23 27 24 22 18 32 65 73 68 79 86 89 90 92 98 101 100 100 99 92 77 66 63 57 59 71 85 94 92 84 80 85 89 90 92 91 89 88 85 86 81 68 64 61 60 71 77 77 79 77 74 71 67 64 69 78 84 91 95 94 96 99 99 100 98 92 81 72 65 55 46 40 36 36 33 33 40 47 54 62 70 75 77
21 20 23 27 31 33 36 36 36 38 36 31 26 22 27 27 24 31 24 28 62 73 70 80 82 86 91 91 97 101 100 100 100 96 79 65 64 58 57 69 85 97 97 89 84 89 94 91 90 90 88 87 87 87 78 66 68 70 65 67 73 77 81 77 71 68 67 68 74 82 87 92 96 95 97 100 100 99 97 89 79 69 56 42 34 30 30 31 31 35 43 50 58 64 67 69 73
20 19 22 24 30 36 40 48 56 50 31 27 30 30 42 33 22 48 52 41 68 83 78 84 86 89 93 93 98 100 99 100 101 96 84 73 66 62 67 77 89 99 98 92 91 94 97 93 90 91 88 85 85 80 69 66 74 77 73 74 77 81 82 74 66 64 70 78 83 82 83 90 95 96 99 100 99 98 94 87 77 64 48 35 29 25 26 28 31 41 49 55 63 64 66 71 74
24 19 22 21 20 25 30 38 50 45 27 35 39 27 36 30 16 55 73 53 70 93 90 90 90 91 96 96 98 100 99 101 98 91 86 80 72 72 82 86 91 99 98 95 96 95 96 94 93 94 89 83 82 75 68 73 82 82 80 81 83 83 76 70 68 69 77 89 88 78 80 90 93 95 100 100 98 96 92 85 74 60 44 32 26 22 23 29 38 50 57 63 66 61 62 67 70
24 20 21 19 16 25 40 41 39 40 36 43 43 23 25 29 24 54 73 63 77 95 94 95 94 94 97 98 99 100 101 100 96 93 91 85 79 85 95 95 95 100 99 98 99 97 97 96 96 94 85 78 80 77 76 82 86 84 83 84 84 79 73 75 81 82 86 91 85 75 80 90 92 95 99 99 98 97 92 82 70 57 43 30 24 23 27 36 45 54 60 66 67 62 62 64 64
18 19 15 19 28 34 41 41 38 39 35 32 33 29 30 33 33 44 60 73 88 95 97 97 96 96 95 97 101 100 100 100 98 98 95 89 89 96 100 100 100 100 100 100 100 99 100 99 99 97 88 82 81 81 85 89 89 85 85 85 81 75 78 87 91 90 89 86 78 73 82 92 96 98 99 100 99 97 93 81 66 54 41 27 24 28 35 43 49 56 64 65 62 60 60 60 61
15 15 11 20 36 36 30 36 39 36 37 39 31 28 34 39 38 39 56 81 91 93 100 97 93 95 93 94 100 100 100 100 99 97 92 90 96 100 100 100 101 100 100 101 100 100 101 100 100 100 97 90 86 87 92 93 91 88 86 84 78 77 88 94 91 87 85 82 79 80 88 96 99 99 100 100 99 97 91 78 62 48 33 24 28 36 43 49 55 63 69 64 58 57 57 57 59
17 18 19 18 20 24 25 32 36 33 44 53 38 31 41 46 45 40 51 79 90 90 94 93 91 92 90 91 95 97 97 96 97 97 94 96 100 100 100 100 100 100 100 100 100 100 101 100 100 101 98 92 89 92 93 92 92 90 87 83 80 85 94 95 89 84 82 84 86 89 93 98 99 99 100 100 98 94 85 72 56 38 26 27 37 46 50 55 60 64 65 62 59 55 53 55 55
19 20 24 22 18 27 32 29 34 39 46 51 44 43 45 45 52 51 50 70 87 89 88 89 91 90 88 90 89 91 95 95 98 99 97 100 101 99 101 100 100 101 100 100 100 100 100 100 100 101 97 91 91 95 94 92 91 88 87 87 87 91 95 93 89 85 85 89 89 90 95 99 99 99 99 98 94 88 77 61 42 29 28 36 46 52 54 56 57 57 58 59 58 53 51 53 53
Wind_Speed
14 11 8 7 6 5 4 3 1 2 2 2 3 2 4 6 4 3 5 3 1 8 7 6 9 7 7 7 15 8 2 6 5 4 4 6 17 24 29 29 31 35 34 34 33 32 31 29 29 28 28 27 26 25 23 22 21 20 19 18 17 16 16 15 15 15 14 14 14 14 13 13 13 13 12 12 11 12 11 10 10 12 14 13 13 14 15 16 15 14 13 12 12 11 11 10 10
14 11 9 8 6 4 4 5 1 2 0 4 4 4 5 3 3 5 8 7 6 11 12 11 5 10 8 9 13 4 1 3 3 4 6 15 24 27 28 27 31 35 34 34 33 32 32 30 29 28 28 27 26 25 23 22 21 20 19 18 17 17 16 15 15 15 15 14 14 14 13 13 13 12 12 11 11 11 11 11 11 13 14 14 15 15 16 15 13 12 11 10 9 9 9 8 8
13 11 9 8 6 4 4 3 2 2 4 7 5 3 4 3 8 10 11 15 17 17 16 12 2 4 4 5 7 4 5 5 4 5 10 22 26 28 30 26 30 33 32 33 33 32 31 30 30 29 28 27 26 25 24 23 22 21 20 19 18 17 16 15 15 15 15 15 15 14 13 13 13 12 11 11 11 11 11 12 13 14 14 14 15 15 14 13 11 10 8 7 7 7 7 7 8
12 11 10 9 6 3 3 2 2 5 6 6 4 4 5 7 11 11 15 25 26 19 11 7 2 1 1 2 4 3 5 8 6 6 13 24 24 29 31 26 31 32 31 32 32 32 31 30 30 29 28 28 27 26 24 23 22 21 20 19 19 18 16 16 15 15 16 16 15 14 13 13 12 11 10 10 11 11 11 12 14 14 14 14 14 14 13 11 9 7 5 5 5 7 8 9 10
12 11 10 11 6 2 2 1 2 5 7 4 2 5 7 9 11 10 17 26 26 18 7 5 3 2 2 1 3 1 5 8 7 9 15 24 24 29 31 28 31 31 31 31 31 31 30 30 29 29 28 28 27 26 25 24 23 22 21 20 19 18 17 16 15 16 16 16 15 14 13 12 11 10 10 10 11 11 10 11 14 15 14 13 13 13 11 9 8 6 5 5 7 9 11 12 12
10 10 10 10 5 2 2 3 3 5 6 5 4 4 6 9 9 11 16 21 24 21 10 9 7 3 2 2 4 6 6 5 8 12 15 23 26 30 31 30 31 30 30 29 30 30 30 30 29 29 28 28 27 26 25 24 23 22 21 20 19 18 17 16 16 16 16 15 14 13 12 11 10 9 9 10 10 10 9 12 14 15 14 13 12 12 10 9 8 7 6 7 11 13 15 15 14
9 9 8 8 3 2 3 5 6 6 5 4 5 4 5 7 8 10 11 12 16 17 9 11 13 6 1 5 4 7 12 6 7 12 14 22 27 30 31 30 30 28 28 29 29 30 30 29 29 29 28 28 27 27 26 25 24 23 22 21 19 18 17 16 16 16 16 15 13 12 11 10 9 8 8 8 8 9 9 12 14 15 14 13 12 11 10 9 9 9 9 11 15 16 17 16 14
9 8 6 5 1 1 2 6 6 4 4 5 4 5 8 8 8 8 7 6 9 11 8 8 16 9 3 7 5 10 14 8 8 10 16 23 27 31 30 30 29 28 28 28 30 30 29 29 29 29 28 28 27 27 26 25 25 23 23 21 19 18 17 17 17 16 15 14 12 11 10 10 9 8 8 8 8 9 10 12 13 14 14 13 12 11 10 10 10 11 12 14 16 17 17 16 14
10 7 4 3 1 2 3 4 5 4 4 6 5 7 12 13 10 9 9 8 10 11 13 8 12 7 3 6 4 10 11 8 8 10 19 24 27 31 30 30 28 27 28 28 30 30 30 29 29 29 28 28 28 27 27 26 25 24 23 21 19 18 18 18 17 16 14 13 11 11 10 10 9 8 7 8 8 10 11 11 12 12 13 13 12 11 10 11 12 12 14 15 16 16 16 15 14
10 7 3 2 2 4 6 4 4 3 5 6 6 11 16 19 14 12 11 10 12 12 18 13 9 5 4 4 3 5 8 9 9 13 23 24 27 30 30 29 27 27 28 29 31 30 30 30 29 29 29 28 28 27 27 26 26 24 23 21 19 19 18 17 16 15 13 12 11 10 10 10 9 8 8 8 9 10 11 11 11 12 13 12 12 11 11 12 12 13 14 15 15 15 15 15 14
7 5 4 1 3 5 7 6 6 4 4 3 5 15 22 23 16 13 13 12 14 15 20 13 6 8 8 3 5 6 8 10 10 14 24 26 29 30 29 29 28 27 27 29 30 30 30 30 30 29 29 28 28 27 27 27 26 25 23 21 20 19 18 17 15 13 12 11 11 11 11 10 9 9 8 8 9 10 11 11 12 12 12 12 12 11 11 12 13 13 14 15 15 15 15 14 13
6 3 4 2 5 5 6 6 8 5 5 3 5 17 21 19 11 10 12 12 15 17 22 15 8 11 8 2 7 9 10 11 12 16 23 27 30 29 29 29 29 28 26 28 29 31 30 30 30 29 29 28 28 27 27 27 26 25 22 21 20 19 18 16 14 13 12 12 12 12 11 10 9 9 8 8 9 10 11 12 12 11 12 12 11 11 12 12 13 13 14 14 14 13 13 14 13
8 3 5 2 4 4 4 3 5 4 5 4 7 16 14 11 11 14 13 14 16 12 22 23 17 14 6 2 7 11 13 15 17 20 24 28 29 29 30 29 29 29 28 29 29 31 30 30 30 29 29 28 28 27 27 27 26 25 22 21 20 19 17 15 14 12 12 13 13 13 12 11 10 9 9 8 9 10 12 12 12 12 12 12 11 11 11 12 12 13 13 13 13 13 13 13 12
11 4 5 2 2 3 3 2 4 3 6 5 10 16 9 8 13 18 15 11 16 18 25 26 23 17 5 5 5 16 20 19 24 25 27 28 29 29 29 29 29 29 28 29 30 30 30 30 30 29 29 28 28 28 27 27 26 24 22 21 20 18 17 15 13 12 13 14 14 13 12 12 11 10 9 9 9 10 12 13 13 12 12 11 11 11 11 11 12 12 12 12 13 13 13 13 12
14 5 4 2 2 2 4 4 4 4 7 6 10 13 8 14 16 19 18 12 21 29 23 16 23 15 8 13 12 25 28 25 30 28 30 29 29 29 28 30 29 29 29 29 30 30 30 30 30 29 29 29 29 29 28 28 26 24 22 21 20 18 17 15 13 13 13 14 14 14 13 12 11 10 10 9 10 11 13 13 13 12 11 11 10 10 10 10 11 11 10 10 11 12 13 13 13
16 8 2 3 4 4 4 4 5 4 6 5 9 8 4 13 16 17 20 18 22 23 13 15 26 14 12 25 22 29 33 30 33 30 31 30 29 30 29 30 30 30 29 30 30 30 30 29 30 29 29 29 29 29 29 28 26 24 22 21 20 19 17 15 13 13 14 14 14 14 13 12 11 10 10 10 10 11 12 13 12 12 11 10 9 9 9 9 9 9 8 8 9 9 11 12 13
13 9 2 3 5 6 5 5 6 4 4 2 7 7 3 10 15 14 16 13 13 9 10 15 24 15 12 22 19 27 35 33 35 32 32 32 32 32 32 32 32 32 31 30 30 30 30 29 30 29 29 29 29 30 29 29 26 24 23 22 21 19 17 15 14 13 14 15 14 13 12 11 11 10 11 11 10 11 11 12 12 11 10 9 8 8 8 8 8 7 7 7 7 7 7 10 12
10 5 4 7 6 6 5 6 6 3 3 2 3 3 3 7 13 16 13 4 1 5 9 10 15 8 9 14 13 26 35 35 35 34 35 35 35 35 35 35 34 34 32 32 31 30 30 29 30 28 29 29 29 30 29 29 26 25 24 23 21 19 18 16 14 13 14 15 14 14 13 12 11 11 11 11 10 10 10 11 11 11 10 9 7 7 6 6 6 6 5 5 5 5 5 7 10
10 3 5 9 6 5 4 4 6 4 5 4 5 7 7 8 11 16 12 2 1 1 3 9 11 7 10 14 15 28 35 36 37 36 37 37 37 37 38 37 36 35 34 34 32 31 30 29 29 28 29 29 30 30 29 28 26 26 25 23 22 20 19 16 14 14 14 15 15 15 14 13 12 11 11 10 10 10 10 10 10 9 9 8 7 6 5 4 4 4 4 4 4 4 4 5 7
11 6 6 8 4 4 6 6 10 11 9 6 8 11 13 17 17 14 9 3 2 2 2 6 11 14 17 18 21 31 37 38 38 37 37 37 37 37 38 37 37 36 35 34 33 31 30 29 29 29 29 29 30 30 29 27 26 26 25 24 23 21 19 16 15 14 15 16 16 16 15 14 13 12 12 11 10 9 9 9 9 8 7 7 6 5 4 3 3 3 3 3 3 3 4 4 5
9 10 7 4 5 6 11 13 16 17 16 11 10 10 13 22 21 15 8 4 4 6 10 11 15 20 23 24 30 36 40 40 39 39 38 37 37 37 36 36 37 36 35 34 33 32 30 30 29 29 29 30 31 29 29 27 26 27 25 24 23 21 18 16 15 14 16 17 16 16 15 14 13 12 12 11 10 8 8 8 8 7 7 6 5 5 4 3 3 3 2 2 3 3 3 4 4
5 10 8 5 6 5 9 14 16 18 19 15 10 7 13 20 18 17 10 5 6 8 13 16 20 24 24 29 36 39 41 41 41 41 39 38 38 37 37 37 37 36 35 34 33 31 31 31 29 30 30 30 31 29 29 27 26 27 26 25 23 21 19 17 16 16 17 17 17 16 14 14 13 13 12 12 11 9 8 7 7 6 6 6 5 6 5 5 5 5 5 4 4 4 4 5 5
6 6 7 9 12 8 10 13 13 17 16 13 8 7 14 13 12 18 14 10 11 13 12 15 20 23 25 31 38 40 42 42 42 42 41 40 39 39 39 38 37 36 35 33 32 31 31 30 30 30 30 31 31 29 29 28 27 27 26 25 23 21 20 18 17 17 17 17 16 15 13 12 12 12 12 12 12 10 9 8 7 6 6 5 5 5 5 6 5 5 5 6 6 5 5 6 6
11 6 4 8 12 12 16 18 17 19 16 13 11 9 12 9 11 17 17 22 25 22 17 14 20 23 27 32 37 40 42 43 42 42 41 40 39 39 39 38 36 35 34 33 32 31 31 30 30 31 30 31 31 30 30 29 28 28 26 25 23 22 21 20 19 18 18 17 15 14 13 12 11 12 12 11 11 9 9 8 8 8 7 6 5 5 6 7 6 5 5 6 6 6 5 6 6
10 8 6 7 12 15 19 20 20 22 21 18 14 11 14 17 17 16 22 34 32 23 15 14 23 26 28 31 36 38 40 41 41 41 40 39 38 38 38 37 36 34 33 33 33 32 31 30 30 30 30 30 30 30 30 29 28 28 26 25 24 23 21 21 20 18 18 17 15 14 13 13 12 12 11 10 9 8 8 8 8 7 7 6 5 5 6 6 6 5 6 6 6 6 6 6 7
6 8 9 9 11 16 18 18 19 20 21 18 11 10 16 23 18 12 24 33 25 15 8 17 26 29 30 31 35 38 40 41 41 42 40 39 38 38 38 37 35 34 33 33 33 32 31 30 30 30 29 29 29 29 30 29 28 28 27 25 24 24 22 22 20 19 18 17 15 14 13 13 13 12 11 9 8 7 7 7 6 5 5 5 4 4 3 3 3 4 5 5 5 6 7 8 9
5 9 13 14 14 18 18 18 20 19 19 17 11 8 16 22 12 7 18 19 12 11 11 20 27 29 31 32 34 37 39 41 41 40 39 39 39 39 39 38 36 35 34 34 34 33 32 31 30 29 28 28 29 29 29 28 27 28 27 25 25 24 23 22 20 19 18 16 15 13 13 12 11 11 9 8 7 6 7 7 5 4 3 3 3 2 2 2 3 5 6 7 8 9 10 11 12
10 7 7 12 14 17 18 16 19 15 11 14 12 9 15 18 7 9 19 12 9 13 15 21 27 28 29 31 33 34 37 38 38 39 40 42 42 41 40 39 38 36 35 34 34 34 32 31 30 29 29 29 29 28 27 26 27 28 27 26 25 24 23 22 20 19 17 16 14 13 12 11 9 8 7 7 5 5 7 6 4 3 3 3 3 3 3 4 5 6 8 9 11 12 14 15 15
13 10 4 6 7 10 14 13 17 13 7 10 9 6 10 10 7 15 22 14 13 15 18 23 26 27 28 29 31 32 33 35 36 39 41 41 39 40 39 39 38 37 36 35 35 35 33 32 30 30 30 29 28 27 25 25 26 27 27 26 25 25 24 22 20 19 17 15 14 13 11 10 8 6 5 5 4 4 4 4 3 3 3 4 4 5 5 6 6 8 9 11 12 13 14 16 16
8 7 3 5 5 6 8 9 14 12 9 12 7 4 8 6 10 19 19 14 19 18 21 24 25 25 27 28 30 31 32 35 38 39 37 34 32 35 36 37 37 37 37 37 36 36 34 33 32 31 30 29 27 26 25 25 26 27 26 26 25 25 25 23 20 19 18 16 14 13 11 10 8 6 5 4 4 3 3 3 3 4 5 6 7 7 8 8 8 9 11 11 12 13 14 15 16
3 3 3 4 4 4 5 8 9 7 10 15 11 6 9 6 11 20 17 15 22 20 22 25 24 25 26 28 29 30 32 34 34 32 30 27 27 30 31 33 35 36 37 37 37 37 35 34 32 32 30 28 28 27 26 25 26 27 26 26 26 25 24 22 21 19 18 17 15 14 11 10 9 7 6 5 4 4 3 4 5 7 8 8 8 9 9 9 10 10 11 11 11 12 14 14 15
2 4 4 4 5 4 4 7 10 8 7 13 14 5 7 7 10 18 17 15 20 19 22 25 24 25 26 27 28 28 27 26 25 26 28 27 26 29 29 28 30 33 35 36 36 36 35 34 33 32 30 29 29 28 27 26 27 27 27 26 25 25 23 22 21 19 18 17 15 13 11 11 10 9 7 6 5 5 5 6 7 8 9 9 9 9 9 10 10 10 10 11 11 11 12 12 12
3 5 4 3 5 3 4 6 8 11 7 8 12 6 4 5 10 18 18 16 19 17 19 23 24 25 26 27 27 25 22 21 23 27 31 32 32 33 32 29 28 30 31 32 34 35 34 34 33 32 30 29 29 28 28 28 28 28 27 26 25 25 23 21 20 19 18 16 15 14 13 12 11 11 10 8 7 7 7 8 8 9 9 9 9 9 9 10 10 10 9 10 10 10 10 10 11
3 1 3 3 4 5 4 6 5 10 8 7 9 7 5 5 9 17 19 18 20 16 17 22 23 23 23 24 24 23 23 24 26 29 30 33 34 33 34 34 31 29 27 26 30 32 33 34 32 30 28 28 28 28 29 28 29 29 27 26 25 24 23 21 19 19 18 15 14 14 14 13 13 13 12 10 9 9 9 9 9 10 10 10 9 9 9 9 9 9 8 8 8 8 8 10 12
4 3 4 3 2 5 7 5 5 8 8 8 7 6 8 8 8 12 17 18 19 18 19 22 21 21 21 22 23 24 26 26 27 27 26 29 33 31 34 37 33 29 24 23 28 31 32 32 30 28 27 26 26 28 29 29 29 29 27 26 25 24 22 21 19 18 16 14 14 14 13 13 13 14 13 12 11 10 10 10 10 10 9 9 9 8 8 7 7 6 6 6 7 8 10 12 14
8 5 5 5 4 4 5 5 6 6 7 7 8 6 6 9 9 9 13 15 17 19 17 15 17 20 22 23 24 26 27 28 27 26 22 25 33 33 34 36 32 29 27 28 31 31 32 31 29 27 26 25 26 28 30 30 30 29 28 27 25 24 23 21 19 17 15 13 13 13 12 12 12 13 13 13 12 11 11 10 11 11 9 9 8 6 6 6 6 6 6 8 9 10 12 14 16
8 5 4 5 5 5 5 5 6 4 6 6 7 7 7 9 9 8 13 13 12 13 10 12 19 23 25 25 23 25 27 28 27 24 21 22 28 33 35 35 32 32 32 33 33 29 28 29 28 27 26 26 28 30 31 31 32 31 30 29 27 25 24 22 20 18 16 14 13 13 13 13 13 13 13 12 12 11 12 12 12 11 9 9 8 6 6 6 7 8 9 10 11 12 13 14 16
5 5 5 4 5 5 5 5 6 3 4 4 3 6 7 9 9 9 12 10 7 10 9 13 21 24 25 24 24 25 26 27 26 23 23 23 24 29 34 36 37 37 35 35 34 30 29 29 28 28 26 27 30 30 31 31 31 31 31 30 27 25 24 23 20 19 17 14 14 14 14 14 13 13 13 11 10 12 12 12 12 10 8 9 8 7 7 7 8 10 11 11 12 13 13 15 17
4 4 5 4 4 3 5 6 6 2 3 4 4 4 7 8 9 9 9 8 9 16 16 17 24 24 23 25 26 28 27 27 27 25 25 25 25 29 35 39 41 40 37 36 35 34 34 31 28 29 30 30 30 30 31 31 30 29 28 27 26 26 24 22 20 18 16 15 15 15 16 15 14 14 12 9 9 11 11 11 11 9 9 10 8 7 8 8 10 12 12 13 13 14 15 16 18
6 4 4 4 4 3 3 5 6 2 3 3 3 3 6 6 7 7 8 10 10 13 15 20 27 29 30 31 32 34 32 31 31 28 27 26 28 31 36 41 43 41 38 36 37 37 35 29 28 30 32 33 32 30 30 30 29 28 26 24 24 25 24 22 21 19 17 17 18 18 17 15 14 14 11 9 9 9 9 10 9 9 9 9 8 9 9 10 11 12 14 15 15 15 16 16 17
5 5 5 4 4 5 4 3 5 3 3 1 3 3 6 5 7 8 8 7 6 6 10 16 23 28 31 32 34 37 37 37 35 32 31 31 32 33 35 40 42 40 39 38 40 40 34 30 30 32 34 35 33 32 31 30 29 28 27 26 26 26 25 23 23 21 20 20 20 19 17 14 14 13 11 10 9 8 9 10 9 9 8 9 10 10 10 11 12 13 14 15 16 16 16 16 15
5 6 8 7 5 6 5 3 4 5 5 3 3 2 6 5 6 9 7 4 4 6 10 15 19 23 27 30 33 36 36 37 37 35 34 34 35 34 35 40 42 41 40 40 42 40 35 32 33 34 36 37 35 34 33 32 30 29 30 30 29 28 27 26 24 23 22 21 20 18 16 15 14 14 12 11 10 10 10 9 9 8 8 10 11 11 11 13 13 14 15 16 17 17 17 16 15
6 6 8 8 6 6 5 1 1 2 3 5 2 4 5 5 5 8 9 7 5 6 7 12 18 24 27 32 37 39 37 37 37 36 36 35 36 36 38 42 42 41 40 41 42 39 36 34 33 34 37 38 38 38 36 34 32 31 30 30 30 29 28 26 23 22 22 20 19 18 16 16 16 15 13 11 12 11 10 9 9 8 8 10 12 12 13 14 14 15 16 17 17 17 18 17 17
5 6 11 8 7 7 5 3 3 2 3 5 1 4 2 4 6 7 7 6 4 5 6 9 15 24 29 33 39 43 42 42 41 39 37 37 37 38 40 42 42 40 40 42 42 41 39 37 35 36 38 39 40 40 38 36 35 33 31 30 30 28 26 24 22 22 21 20 19 17 16 18 18 15 13 12 13 12 11 10 9 9 10 11 12 13 14 15 15 16 16 17 17 18 19 18 17
4 6 11 9 8 8 5 4 2 2 2 5 3 3 1 4 7 6 2 3 4 5 9 10 13 23 30 33 40 43 41 43 42 41 40 40 40 40 41 42 42 41 41 43 44 44 43 42 39 39 40 41 41 40 39 37 35 33 32 30 30 28 25 22 21 22 22 20 19 18 18 19 18 14 13 13 12 13 12 10 10 10 10 11 12 13 14 15 16 16 16 17 17 18 17 17 16
4 7 8 6 5 4 3 4 3 1 2 7 5 3 1 4 7 5 1 2 6 6 8 9 11 20 26 29 34 37 36 40 42 41 41 41 41 40 40 42 43 43 42 43 45 46 45 44 43 42 42 42 42 40 39 37 34 33 32 31 29 28 25 23 22 22 22 21 19 19 19 19 17 15 14 13 13 13 12 11 10 10 11 11 13 14 14 15 16 16 17 17 16 16 15 15 14
4 6 6 4 2 1 1 1 3 2 5 8 7 6 4 3 6 4 3 4 6 7 7 8 9 15 23 26 30 34 37 40 42 41 41 40 40 40 42 44 45 45 44 44 46 46 46 45 44 43 43 43 42 40 38 35 32 32 33 31 27 25 24 23 24 24 23 21 20 20 20 19 18 16 16 15 15 14 13 12 10 10 11 12 13 14 14 15 16 17 17 16 15 14 13 13 12
5 5 5 3 2 1 2 2 2 4 6 6 6 7 6 4 6 6 7 7 7 10 11 12 12 16 25 29 32 37 40 41 41 41 42 41 42 43 44 46 46 45 46 46 47 47 46 45 43 42 42 41 40 39 36 33 31 32 33 30 25 23 22 23 24 24 23 22 22 22 21 20 19 18 17 17 16 15 14 12 10 10 11 13 13 14 14 15 15 15 15 14 13 13 12 12 12
6 5 6 5 3 2 4 3 2 5 5 4 5 7 4 5 7 9 10 8 8 11 12 17 18 20 26 31 35 39 41 42 41 42 43 44 45 45 46 46 45 45 46 47 47 46 45 44 42 41 40 39 39 37 34 31 30 32 33 30 25 21 21 23 24 24 22 22 22 23 22 21 21 20 19 18 17 16 15 11 10 11 12 13 13 14 14 14 14 13 13 12 12 12 11 12 13
9 6 7 8 5 5 8 5 2 3 4 5 4 4 3 4 5 10 12 10 12 15 16 22 27 29 33 34 35 36 39 42 42 41 44 45 46 46 46 46 45 44 45 46 46 45 43 42 41 39 39 38 37 36 33 31 30 30 30 30 26 21 21 22 23 23 22 22 23 23 23 22 21 20 19 18 17 16 15 12 11 11 12 13 13 13 14 13 13 12 12 12 11 11 11 12 13
10 5 5 6 5 6 6 4 3 3 3 3 2 3 4 3 4 8 9 10 14 16 15 18 22 24 27 28 29 32 35 39 39 39 43 46 46 45 45 45 44 43 43 44 45 43 41 40 40 39 38 37 36 35 33 31 30 27 27 28 26 23 22 22 22 22 22 23 23 23 23 22 22 20 19 18 17 16 15 12 12 12 12 13 13 13 14 13 13 12 12 11 11 11 12 12 13
8 4 5 5 5 4 2 3 6 5 2 1 2 3 4 4 5 6 4 5 8 9 10 12 14 16 20 24 27 31 35 37 38 39 43 44 44 44 44 43 43 42 41 42 43 41 40 39 39 38 37 36 34 32 32 31 29 26 26 26 25 24 23 22 21 21 22 23 24 23 22 22 22 20 19 18 17 16 15 13 13 13 12 13 13 13 14 14 13 11 10 10 9 10 11 12 13
5 5 6 4 4 4 2 2 1 4 4 3 1 3 4 3 4 6 6 1 3 6 8 10 13 18 22 25 29 32 34 37 39 41 42 42 42 43 42 42 42 40 40 41 41 40 39 39 38 38 37 35 32 31 31 31 28 26 26 25 24 24 23 22 21 21 22 24 24 23 22 23 22 20 19 18 17 16 15 15 14 14 13 13 13 13 13 13 11 9 9 8 8 10 10 11 13
5 7 7 3 3 1 2 1 2 4 3 4 1 4 4 1 3 5 6 0 4 4 6 7 10 17 21 24 29 32 33 35 36 37 37 39 41 41 39 38 38 38 37 37 37 38 38 37 36 37 36 34 32 31 31 29 28 27 26 25 25 24 22 21 20 21 22 25 25 23 23 23 22 20 19 18 16 16 16 16 15 14 13 13 13 13 12 11 9 8 8 7 8 9 10 11 12
7 6 6 5 3 2 1 2 2 2 2 3 1 2 3 3 4 3 0 4 5 4 6 7 10 15 19 24 28 30 31 32 33 35 36 38 40 39 35 34 34 35 34 33 34 35 35 34 34 35 35 33 32 32 31 29 28 27 26 26 25 24 23 21 20 22 24 25 25 23 23 22 21 20 18 17 17 18 17 17 16 14 12 12 12 11 10 8 7 7 7 7 8 9 10 11 12
6 6 7 5 3 3 3 3 3 3 3 3 1 2 3 5 5 6 7 8 7 7 7 9 11 15 21 26 30 32 34 36 37 38 39 39 38 36 34 32 32 33 32 31 31 32 32 31 31 32 33 32 33 33 30 28 26 26 26 26 25 24 22 20 21 23 24 25 24 23 22 22 20 19 18 18 19 19 18 18 15 13 12 11 10 9 7 6 5 6 6 7 7 8 9 11 11
5 6 7 5 2 2 3 2 2 4 3 3 3 1 5 6 4 6 9 9 9 11 11 10 11 17 22 26 31 35 38 40 39 38 38 37 35 33 32 29 29 32 31 30 30 30 30 29 29 31 32 31 33 32 28 26 25 26 26 26 26 24 22 21 22 23 24 24 22 22 22 21 19 19 19 20 20 20 18 17 14 13 11 9 8 6 4 4 5 6 6 7 7 7 8 9 10
7 5 5 6 5 3 3 2 2 2 4 4 5 3 6 6 3 4 6 7 10 12 12 10 13 20 25 27 31 35 36 36 33 32 33 32 31 31 30 27 28 30 29 29 29 29 29 28 28 30 31 31 33 32 29 27 26 26 26 26 26 24 23 22 23 23 23 22 22 21 21 20 20 20 21 21 21 19 17 14 12 12 10 7 5 4 3 3 4 5 6 6 7 8 8 9 10
Wind_Direction
252 247 234 227 224 236 240 176 225 312 107 224 224 200 248 234 260 285 277 281 318 272 252 323 309 210 172 196 200 206 191 167 174 158 196 174 154 170 176 175 174 170 167 167 170 171 171 170 167 165 165 164 162 161 162 161 157 156 155 154 153 152 151 150 150 150 152 153 152 150 145 143 142 140 137 136 136 136 134 131 124 123 130 128 127 127 121 116 114 113 113 113 112 110 106 99 92
245 239 222 215 212 226 210 159 204 295 166 264 229 184 239 252 258 245 251 248 225 251 274 319 320 196 212 212 198 217 208 199 233 182 152 150 156 169 173 173 175 173 169 168 171 171 170 169 167 165 165 165 163 162 162 161 159 158 157 156 155 154 154 152 152 152 154 156 155 152 148 146 144 142 138 136 135 137 137 133 129 132 134 130 130 128 124 121 119 119 120 123 123 123 119 110 100
234 226 210 204 201 214 176 152 220 182 206 246 237 216 232 225 232 236 240 249 248 252 280 296 287 171 199 176 183 199 203 245 254 176 145 156 164 169 170 174 175 175 172 170 171 171 170 169 168 166 166 166 163 163 162 162 161 159 158 157 157 156 156 155 154 154 156 157 156 153 149 147 144 141 136 133 132 134 137 136 136 139 138 135 135 132 129 128 125 125 127 135 143 145 139 124 112
218 209 203 195 185 187 129 162 200 165 217 235 242 239 215 218 229 239 243 255 262 261 276 272 289 352 219 190 181 177 215 235 235 195 160 164 170 168 167 173 174 175 175 173 172 171 171 169 168 167 167 167 165 163 162 162 162 161 160 159 159 158 158 156 155 155 156 157 156 153 148 148 144 139 133 130 131 131 133 138 143 146 144 140 139 137 135 133 129 128 132 147 155 154 146 130 121
203 198 198 188 177 178 135 192 160 182 219 198 219 227 208 222 229 241 249 257 266 269 256 207 285 278 229 269 182 254 223 214 224 208 173 165 169 167 164 169 172 175 176 175 173 171 171 170 168 168 168 168 166 164 163 164 163 162 161 161 160 160 160 157 157 157 156 157 156 152 149 148 145 139 133 128 131 129 127 138 147 150 148 145 143 141 140 136 128 125 132 139 143 144 139 132 128
195 194 193 185 190 204 171 235 204 215 220 180 210 234 216 224 234 247 259 268 270 272 253 214 235 205 226 216 215 261 197 190 221 202 180 166 168 168 163 166 172 176 177 175 174 173 172 170 168 169 170 169 167 165 164 165 164 163 163 162 162 161 160 159 158 158 157 158 156 153 151 150 147 142 137 132 132 130 126 135 145 151 152 150 148 146 143 134 123 121 125 128 132 135 135 134 132
192 187 183 179 213 216 190 237 225 224 238 207 196 234 236 230 246 260 276 283 281 277 257 227 211 181 229 185 205 227 181 178 211 200 189 171 169 171 164 167 173 176 177 177 176 174 173 171 170 171 171 170 168 166 166 165 165 164 164 163 163 162 161 160 159 159 158 158 157 155 154 153 150 146 143 140 138 135 130 136 145 152 157 155 152 149 141 129 121 121 126 126 129 132 134 136 134
190 178 165 157 240 271 213 245 235 214 248 257 213 234 245 252 263 273 281 267 289 292 290 249 201 193 211 178 177 192 188 197 202 209 197 175 171 172 167 169 174 176 178 179 177 175 174 173 172 172 172 171 169 168 167 166 165 165 165 165 164 163 162 160 160 160 160 160 159 158 156 154 152 151 149 146 143 139 136 141 148 152 156 156 153 148 138 126 122 126 130 130 131 133 135 137 134
186 173 151 143 191 245 253 258 255 227 244 263 248 253 259 266 268 267 271 265 282 288 291 265 189 205 202 189 208 186 200 216 208 209 193 178 174 173 170 173 175 177 178 180 178 176 175 174 173 173 173 172 171 169 168 167 166 166 165 166 165 164 163 161 161 161 162 162 160 158 155 153 151 151 149 147 144 141 141 146 149 150 152 156 154 146 135 127 126 133 136 135 135 136 137 137 134
180 181 168 132 159 224 252 248 250 246 241 249 248 256 262 262 260 258 259 267 270 274 282 264 199 203 160 199 248 199 216 219 218 194 184 181 176 174 173 175 179 181 180 180 179 178 176 174 174 174 175 173 172 171 169 168 167 167 166 167 165 164 163 162 162 162 163 161 158 155 152 149 147 147 149 150 147 144 144 147 151 152 154 155 151 143 135 129 131 139 142 141 139 138 139 137 135
178 196 171 169 194 214 234 233 238 250 268 290 273 253 254 255 257 262 260 271 268 266 269 256 203 176 146 205 219 211 220 214 227 192 181 181 177 176 174 176 182 184 182 180 179 179 177 175 175 176 176 174 173 172 170 169 168 167 167 167 165 163 163 162 163 163 162 157 153 151 148 146 145 148 150 153 150 144 144 148 151 152 153 151 147 141 134 131 136 145 148 147 145 144 143 141 139
187 206 140 186 210 212 220 228 242 255 288 294 274 259 254 248 248 257 256 263 261 262 259 242 202 179 145 232 210 207 209 203 216 195 182 178 176 176 177 179 180 183 182 182 180 179 179 176 175 176 177 176 174 172 171 170 169 168 168 167 164 163 162 162 163 162 159 154 151 149 147 146 147 149 149 154 150 144 146 149 150 150 151 148 144 139 135 134 139 147 153 154 152 152 150 148 145
196 177 133 186 207 201 199 220 251 259 275 238 234 257 255 232 231 243 247 256 255 254 260 250 211 182 142 163 199 200 197 194 197 190 181 175 174 175 178 179 178 182 182 182 181 180 180 178 176 176 177 177 175 173 172 171 169 169 168 166 163 162 161 161 161 158 156 152 150 149 148 149 148 149 148 152 151 145 146 149 149 150 150 146 144 141 136 135 138 146 154 160 161 160 158 156 154
203 179 152 219 240 186 185 220 244 230 254 231 230 249 248 236 247 251 249 252 259 249 260 259 208 181 140 138 192 196 189 188 187 182 177 172 173 174 178 179 179 182 182 182 182 182 182 180 177 176 177 177 175 174 173 172 170 169 168 165 162 162 161 159 158 155 155 152 152 152 151 151 148 147 147 151 152 146 146 148 151 151 150 147 147 144 139 137 136 140 148 160 168 169 167 166 164
206 192 141 216 274 212 211 214 198 213 243 223 233 250 247 255 262 261 256 238 264 264 258 248 199 190 170 176 210 199 186 183 182 178 174 171 172 174 179 180 181 183 183 183 183 184 184 181 178 177 177 176 175 174 174 172 170 170 167 164 162 163 162 159 156 154 156 153 154 155 154 152 147 147 147 151 151 147 147 149 151 152 152 149 150 147 142 141 137 137 140 149 163 174 178 177 175
207 205 107 209 235 218 216 199 165 202 242 209 230 258 269 267 264 259 267 251 264 269 238 204 192 197 194 197 217 198 181 179 179 176 173 171 173 176 180 182 183 183 183 185 185 186 185 182 180 178 177 175 176 174 173 171 170 170 167 165 164 164 162 158 155 155 157 156 157 156 154 152 149 151 150 152 150 146 147 148 151 152 151 150 151 151 147 145 141 139 139 142 151 166 180 186 186
204 209 220 220 220 212 203 187 175 196 262 226 226 249 249 279 282 277 286 266 254 235 195 191 187 194 205 205 219 191 178 179 177 175 174 172 174 177 181 184 184 183 183 186 187 187 185 183 181 179 177 175 176 174 174 171 169 170 167 166 166 165 163 160 158 158 160 159 158 156 154 154 153 154 153 153 151 147 147 147 148 149 148 150 153 156 155 152 148 145 144 146 146 152 169 185 191
197 189 210 222 213 206 185 178 198 221 269 271 233 257 233 264 302 312 308 287 192 166 162 161 173 187 200 204 209 184 179 180 178 177 176 175 177 179 183 184 185 185 184 185 186 187 185 183 182 180 177 176 176 175 174 171 170 170 169 168 168 167 166 163 161 161 162 160 158 158 158 160 158 155 154 155 155 152 149 148 148 149 150 153 159 162 164 161 156 153 150 149 150 154 163 177 190
202 144 203 224 202 206 193 185 224 241 258 291 306 318 322 285 309 327 315 298 87 132 133 145 152 137 169 184 184 182 182 181 181 181 179 178 180 181 183 184 186 186 184 184 184 185 185 184 183 180 178 176 176 176 174 172 171 171 171 171 170 169 168 165 163 162 163 162 161 162 164 165 161 155 153 153 157 156 154 153 153 154 155 158 163 167 169 168 162 159 155 153 154 163 171 176 185
208 195 220 228 201 253 255 239 241 248 271 300 304 312 314 296 307 324 306 291 294 234 183 153 149 145 159 170 176 182 182 182 182 182 183 182 182 184 185 185 187 186 184 183 183 183 184 185 184 181 180 178 177 177 174 173 172 173 174 174 173 171 169 164 164 164 164 166 165 165 167 166 163 158 155 153 154 156 157 160 162 164 166 169 172 178 181 180 179 173 164 164 167 171 176 177 183
198 204 223 214 184 249 248 246 252 258 272 277 287 306 300 294 303 308 286 285 297 234 207 186 174 168 163 169 178 181 180 181 182 184 186 185 185 187 188 187 186 185 183 183 184 183 183 185 185 182 182 179 178 178 175 175 175 175 176 176 176 172 168 165 164 166 167 169 167 167 167 165 163 160 159 157 155 155 156 159 165 170 176 181 189 199 206 212 226 235 226 225 220 217 208 201 197
202 216 223 219 208 237 243 245 251 256 264 269 281 294 287 292 298 298 292 250 257 258 228 204 193 188 179 178 178 177 180 181 182 185 188 189 190 190 188 187 185 185 184 184 184 184 184 186 185 183 183 180 180 180 178 179 178 177 178 178 177 172 168 166 165 165 167 168 167 167 166 164 163 161 163 162 159 157 157 158 162 167 176 187 200 206 213 223 234 247 248 246 240 235 230 223 212
225 235 215 219 227 239 256 255 254 256 256 258 270 272 280 293 295 294 294 267 276 305 280 223 203 196 188 181 177 179 181 183 186 188 192 195 194 191 187 187 186 185 185 184 184 184 186 186 186 186 184 182 182 183 182 181 181 181 180 179 176 172 168 167 163 161 163 166 166 163 161 164 164 163 165 165 163 160 160 162 163 165 173 186 201 206 211 214 219 228 226 226 226 231 223 214 211
224 241 221 224 234 242 255 260 264 266 261 261 269 270 275 280 287 293 291 284 288 303 297 230 198 189 182 180 182 185 185 186 188 191 196 197 194 190 188 188 187 186 185 184 185 185 186 187 187 188 186 184 185 186 186 185 183 182 181 179 176 173 170 167 163 160 161 164 163 159 158 163 163 161 161 163 162 159 163 166 168 172 179 185 191 197 205 207 212 217 218 222 229 241 235 223 224
226 234 247 244 247 251 259 262 264 267 269 273 271 260 261 263 273 284 282 284 287 294 289 211 186 181 182 185 186 185 184 185 188 191 195 194 193 191 189 189 187 187 187 186 186 186 186 186 187 189 188 187 188 188 189 189 185 182 182 180 176 174 172 167 165 163 164 165 164 159 159 163 162 158 155 157 157 157 168 172 173 179 184 187 188 196 204 209 219 228 230 231 240 257 259 252 253
222 222 241 245 249 255 263 266 265 266 269 271 266 258 264 266 272 276 272 279 282 277 245 189 180 179 184 186 185 183 184 185 189 192 192 192 194 192 191 190 189 189 189 188 188 187 186 186 186 189 189 190 191 191 192 192 186 182 183 181 177 175 172 169 169 167 167 169 167 163 163 164 162 160 156 157 158 160 172 175 174 180 185 188 195 205 208 222 246 255 254 252 262 277 282 282 280
234 217 232 241 245 252 257 261 264 265 267 262 251 260 269 267 262 255 269 276 262 226 187 182 181 181 184 183 184 185 186 188 190 190 190 193 194 194 192 190 191 192 192 191 190 188 186 185 185 187 189 191 193 193 194 192 187 184 183 182 179 176 173 173 172 171 172 172 170 170 171 170 168 166 162 164 168 171 176 176 172 171 189 200 207 217 228 276 287 289 289 293 297 297 297 296 293
265 253 246 250 244 248 249 251 259 258 265 257 242 252 266 263 239 237 261 258 213 196 177 183 182 180 183 182 185 186 188 190 190 192 194 196 196 195 194 192 192 194 195 194 191 190 187 185 185 185 188 192 194 194 194 192 189 187 184 182 180 178 177 176 176 176 177 177 176 177 178 178 177 169 159 159 163 169 177 179 179 187 219 230 237 260 274 284 288 295 302 305 302 298 297 295 294
263 270 279 275 260 253 243 240 251 244 249 248 237 263 262 254 231 245 254 228 197 193 181 186 184 180 182 183 186 187 190 190 191 198 200 199 196 194 194 194 196 197 197 195 192 191 189 186 186 187 189 192 195 195 194 194 192 188 185 183 181 181 181 180 182 181 182 185 185 184 184 186 188 173 150 143 141 151 178 192 207 229 248 262 272 278 280 283 288 293 296 295 292 290 290 290 289
251 249 229 265 281 266 227 222 242 237 243 233 210 260 252 248 245 248 251 207 185 183 181 187 184 181 182 183 186 188 192 194 197 202 202 198 194 194 195 196 199 200 197 194 195 194 191 189 187 188 190 191 193 194 194 194 193 189 186 185 184 184 185 184 186 186 187 192 193 193 190 191 196 187 165 154 153 161 197 221 248 261 266 274 279 279 278 278 280 282 282 282 283 285 287 287 287
219 209 198 211 233 260 206 194 213 223 246 217 193 246 249 260 259 246 243 201 184 179 180 187 183 181 183 184 186 190 194 198 201 201 200 198 193 194 195 195 200 201 199 197 197 195 192 191 190 190 190 190 193 194 194 194 192 190 187 188 188 188 188 188 190 190 192 195 197 198 196 198 204 202 189 179 180 189 214 234 244 251 258 265 269 271 271 271 271 272 274 275 277 281 284 286 287
200 197 212 191 204 274 257 207 195 203 239 197 182 245 254 248 254 242 240 207 193 188 182 187 184 182 184 186 189 191 194 197 198 198 202 202 196 194 192 193 198 202 203 201 199 197 194 193 193 192 191 192 193 193 193 193 191 190 189 190 190 190 191 193 195 195 196 197 199 200 202 208 211 214 210 200 205 214 226 234 236 243 251 256 259 261 262 264 266 268 270 271 274 277 278 279 283
230 202 201 178 185 236 276 253 208 194 216 194 186 224 247 242 240 233 235 214 204 199 187 189 187 185 185 187 190 189 186 189 196 202 207 206 201 200 200 198 199 202 206 205 201 199 197 196 195 195 194 193 193 193 191 191 191 189 190 191 192 194 194 197 199 198 200 200 198 201 205 210 214 218 219 215 218 221 227 234 237 244 250 254 257 258 260 262 264 266 267 269 274 278 277 277 282
228 172 180 208 176 177 221 269 245 186 199 219 202 214 224 252 248 228 226 212 205 203 194 194 189 186 184 184 187 185 184 189 198 206 209 208 205 201 203 203 199 200 205 208 207 203 201 198 196 195 195 194 194 193 190 188 189 188 190 193 194 196 198 199 201 199 201 200 196 198 202 207 212 215 217 220 224 223 226 233 238 244 253 259 257 253 255 254 257 260 261 268 277 285 291 292 292
176 147 167 223 193 188 201 225 240 180 188 217 201 210 227 249 267 239 228 209 201 207 204 199 188 178 178 182 184 183 187 192 200 207 208 211 208 200 200 200 197 199 199 202 210 211 206 198 193 191 191 193 192 190 188 185 185 188 192 195 196 199 200 200 201 201 203 201 197 198 199 204 207 208 213 220 224 225 228 233 237 245 254 251 238 235 246 248 252 263 272 285 295 302 307 305 303
168 170 152 183 198 229 217 219 244 188 185 220 204 203 218 237 255 252 238 212 201 212 211 195 175 168 176 182 180 181 189 193 200 209 208 209 210 207 205 199 198 203 199 196 202 208 209 198 188 189 188 188 187 186 184 182 183 187 191 195 197 199 199 199 202 206 207 205 204 201 199 200 201 202 208 217 224 227 231 236 241 246 246 233 221 226 246 254 265 283 295 300 303 307 310 308 307
162 169 163 177 187 233 241 248 266 199 185 231 203 196 214 230 239 246 244 229 210 210 197 172 165 168 178 178 173 177 188 194 199 206 203 202 207 212 212 203 202 203 198 200 198 198 206 201 189 188 188 186 185 184 182 183 185 188 192 195 197 197 197 199 204 208 211 211 209 205 202 203 204 205 207 213 223 229 234 241 245 243 233 225 226 236 251 266 286 297 303 305 305 306 308 307 305
164 165 194 208 192 229 250 250 268 206 174 247 186 187 230 237 233 236 238 238 231 214 186 164 169 175 178 172 167 174 185 192 194 194 192 196 202 208 209 204 204 202 197 202 201 190 192 197 196 194 192 189 186 184 184 187 191 193 195 196 197 197 198 201 205 208 210 211 208 204 205 206 208 212 211 213 224 233 237 241 241 235 228 230 238 252 267 283 293 298 301 303 304 304 305 304 303
211 161 168 215 213 246 276 271 277 214 160 257 240 217 249 252 245 242 232 224 230 229 214 185 177 176 171 167 169 175 182 188 189 187 187 194 199 202 202 200 203 203 199 202 203 192 183 187 197 200 200 195 189 189 190 193 194 196 198 198 199 201 203 204 205 208 211 208 203 200 202 205 207 213 212 211 226 234 235 232 231 228 231 238 245 257 269 281 289 294 297 298 299 302 305 305 305
215 182 157 215 219 191 239 272 280 234 158 215 219 264 277 283 284 272 249 234 230 235 223 199 189 183 177 178 181 183 187 190 189 186 186 191 198 200 199 198 199 200 201 201 198 193 185 183 194 203 206 201 196 196 197 197 196 196 198 201 204 207 208 208 206 209 211 205 200 197 201 201 204 212 205 199 216 225 224 220 221 227 239 250 258 262 268 276 283 289 294 297 300 302 304 304 306
205 200 182 204 216 195 206 268 298 327 351 185 136 330 297 279 283 280 273 253 222 204 188 191 195 188 182 182 186 191 196 197 190 185 188 193 197 198 197 197 198 199 201 199 193 190 188 185 192 203 207 204 201 201 201 201 198 196 197 201 206 209 210 211 210 210 207 202 199 198 200 200 205 209 192 183 200 210 217 218 220 231 246 262 270 275 282 289 292 294 298 300 303 305 304 304 306
217 212 191 191 203 219 238 298 351 25 346 282 145 261 283 275 265 261 270 271 213 184 168 180 186 178 176 178 184 193 198 198 193 189 190 193 194 195 196 197 199 199 200 198 193 190 189 187 190 199 204 203 201 202 203 203 201 200 201 203 206 208 210 211 211 207 201 198 197 198 200 201 207 204 185 184 200 208 218 223 228 240 255 267 278 288 296 301 303 302 302 302 303 303 302 303 304
224 196 173 186 195 218 239 249 72 100 260 277 149 188 263 304 284 254 256 256 224 193 176 180 176 171 176 182 187 193 195 193 191 190 190 192 192 192 194 197 199 200 200 198 193 191 191 188 190 197 202 201 200 202 204 205 206 206 208 210 211 211 211 211 208 203 199 196 196 198 198 200 206 201 188 195 210 216 225 234 244 259 274 283 291 296 297 299 299 298 299 299 301 302 302 302 303
222 167 156 183 204 216 218 151 162 216 254 293 10 138 213 293 270 250 247 243 213 185 187 187 176 175 181 186 190 194 197 194 189 188 192 194 193 193 194 197 199 199 198 196 194 193 194 192 193 197 199 199 201 203 205 207 209 210 212 215 215 214 212 209 205 200 197 196 197 196 193 199 204 200 198 209 219 227 234 242 257 276 290 295 295 294 294 294 294 295 297 300 303 305 304 303 303
220 157 150 181 207 219 217 144 186 276 314 295 314 109 160 275 270 268 232 189 202 199 197 194 185 184 185 189 193 195 196 194 191 192 195 196 196 196 197 198 198 198 197 198 196 194 195 195 197 199 198 199 201 204 206 209 211 213 214 213 211 210 210 209 206 200 196 195 196 193 193 200 203 200 209 222 229 237 240 247 265 281 290 293 291 290 291 292 293 294 297 300 302 303 303 302 303
202 149 145 174 195 212 213 174 187 215 240 255 246 166 177 274 281 294 17 191 212 205 204 203 191 189 191 192 193 193 194 193 193 196 198 198 198 197 197 198 197 197 199 200 198 196 196 198 199 199 199 200 203 205 207 210 212 213 210 206 205 206 207 207 204 199 197 195 193 192 195 201 203 204 214 226 235 241 245 254 267 277 283 287 288 290 291 291 293 295 297 298 299 299 299 300 301
163 141 151 185 197 75 45 152 136 167 241 250 221 172 164 261 282 268 213 220 201 177 193 207 190 189 195 195 194 193 193 193 195 198 199 198 197 196 197 198 197 198 200 199 198 197 198 200 200 199 200 201 203 205 208 210 211 209 204 202 202 204 205 203 200 198 196 193 192 195 199 201 203 209 218 227 237 243 247 254 264 276 284 289 291 292 294 294 295 297 297 297 297 298 299 300 299
173 146 148 182 240 0 355 4 99 199 242 258 211 166 155 214 266 256 231 233 204 183 186 189 187 191 193 193 195 195 194 194 196 197 197 195 194 195 197 198 199 199 198 198 198 198 199 201 200 200 202 202 204 207 208 210 210 206 202 201 203 205 205 201 199 200 197 193 194 198 201 202 204 212 221 230 239 244 248 255 272 288 292 293 294 295 297 298 298 298 296 295 294 294 295 295 292
190 160 148 171 187 187 224 222 193 221 240 250 194 157 166 224 243 252 248 238 214 203 192 181 183 190 192 192 194 195 195 195 197 196 195 194 194 195 198 199 200 200 198 198 198 198 199 201 201 202 204 204 206 208 209 208 207 204 202 202 204 207 206 204 201 202 200 197 199 202 203 204 208 214 222 231 239 244 250 260 282 295 296 295 295 298 300 300 300 297 294 291 287 286 288 288 288
191 181 164 179 177 185 212 213 219 243 242 242 197 157 232 260 252 245 239 228 209 204 198 188 186 189 191 192 191 192 195 196 197 196 194 195 195 197 200 201 200 200 199 198 199 199 200 202 203 203 205 206 207 209 208 206 205 205 204 205 207 209 208 205 203 203 202 200 203 207 206 206 213 219 224 232 238 244 252 264 284 294 297 299 299 300 299 298 296 292 287 283 280 282 285 289 292
197 185 134 175 190 180 200 201 192 216 243 251 194 152 192 196 241 248 237 230 209 196 193 190 191 192 189 187 186 188 194 196 197 196 195 196 197 200 202 202 201 199 198 199 200 199 200 202 203 203 205 206 207 207 206 204 203 204 205 206 209 210 207 204 202 202 203 202 204 209 209 210 218 224 228 233 239 246 255 268 285 294 297 300 301 300 297 294 289 283 278 277 281 285 289 295 298
197 161 127 196 197 148 144 174 174 169 165 218 188 198 215 202 251 299 317 251 210 169 158 166 180 186 181 183 187 190 194 196 196 196 196 197 199 202 203 202 200 199 198 199 199 199 199 201 202 203 206 206 205 204 202 201 202 203 204 206 207 206 204 202 200 200 202 203 206 210 211 214 220 226 230 235 242 250 260 275 289 296 297 297 299 298 294 288 281 276 275 278 283 287 292 296 297
167 175 188 198 161 130 120 186 147 102 148 225 216 212 279 302 268 328 7 287 194 135 141 157 167 172 175 185 193 194 195 196 196 196 197 199 200 202 203 201 199 197 197 198 199 199 199 201 202 203 206 205 202 200 199 199 201 202 203 203 203 202 200 200 200 200 201 203 206 211 214 217 222 227 232 238 247 256 267 281 292 296 295 294 296 295 287 278 273 274 277 280 286 292 297 299 299
154 193 192 119 93 127 93 135 2 59 153 252 288 190 246 271 232 320 13 122 207 150 140 147 158 168 178 189 194 197 198 197 197 197 199 201 202 203 201 199 197 194 195 198 199 200 200 201 203 204 205 202 198 197 197 198 200 201 202 201 201 200 198 199 201 203 203 204 207 211 215 220 225 229 234 242 252 262 272 285 292 293 291 291 292 287 277 271 273 278 277 277 287 296 303 305 305
177 174 163 142 166 216 108 153 188 100 177 247 327 244 234 194 216 266 290 213 209 153 146 161 170 179 185 188 192 196 197 198 199 199 200 201 203 202 198 197 196 193 193 196 199 200 200 202 205 207 206 201 197 198 197 196 198 199 200 200 199 198 198 200 203 205 206 206 209 213 216 221 225 230 237 246 257 265 274 284 289 288 287 285 281 275 270 271 278 282 278 281 291 298 305 307 307
178 146 161 169 158 162 166 168 159 155 187 201 219 314 261 231 220 186 192 212 190 161 177 188 188 190 188 186 188 191 193 197 199 199 199 200 202 200 195 195 195 193 192 195 198 199 200 201 203 209 210 203 199 200 197 194 195 196 198 198 198 198 201 203 203 205 207 208 211 215 217 221 225 233 243 252 260 266 273 281 283 282 279 275 271 268 267 272 278 279 280 289 300 306 309 311 311
171 167 177 176 151 144 154 154 139 139 155 176 169 222 260 255 218 177 195 204 187 181 190 198 200 195 192 190 189 190 193 196 198 197 196 198 199 195 191 192 194 193 193 195 198 198 198 199 201 207 210 204 200 199 196 194 193 195 197 197 198 201 204 205 203 205 208 209 211 216 219 224 230 240 249 255 261 266 271 276 278 276 272 266 263 259 258 270 275 276 282 293 305 311 311 313 315
171 177 183 173 165 142 128 180 243 118 136 167 159 190 263 262 208 206 220 202 197 196 190 196 201 193 192 195 194 194 195 195 193 193 194 195 194 189 186 188 190 191 192 195 199 198 197 199 201 207 210 206 201 196 192 193 192 193 197 199 201 204 204 204 204 205 207 208 211 217 223 229 237 244 251 256 260 264 268 270 270 269 264 251 244 244 252 274 280 285 295 303 309 315 320 324 326